Weather History for Rochelle, IL

Change the Weather History Date:

Tuesday, June 10, 2014

  Actual Average (KRFD) Record (KRFD)
Temperature  
Mean Temperature 64 °F 68 °F  
Max Temperature 68 °F 80 °F 98 °F (1933)
Min Temperature 59 °F 57 °F 37 °F (1913)
Degree Days  
Heating Degree Days 2 1  
Month to date heating degree days 19  
Since 1 June heating degree days 19  
Since 1 July heating degree days 6557  
Cooling Degree Days 0 5  
Month to date cooling degree days 38  
Year to date cooling degree days 93  
Since 1 June cooling degree days 38  
Growing Degree Days 14 (Base 50)    
Moisture  
Dew Point 54 °F    
Average Humidity 76    
Maximum Humidity 93    
Minimum Humidity 59    
Precipitation  
Precipitation 0.09 in 0.16 in 3.32 in (1967)
Month to date precipitation 1.63  
Year to date precipitation 14.10  
Snow  
Snow 0.00 in 0.00 in 0.00 in ()
Month to date snowfall 0.0  
Since 1 June snowfall 0.0  
Since 1 July snowfall 36.7  
Snow Depth -    
Sea Level Pressure  
Sea Level Pressure 29.88 in    
Wind  
Wind Speed 11 mph (NE)    
Max Wind Speed 20 mph    
Max Gust Speed 25 mph    
Visibility 8 miles    
Events Rain    
T = Trace of Precipitation, MM = Missing Value Source: NWS Daily Summary

Daily Weather History Graph

Daily Weather History Graph

Search for Another Location

Airport:

Trip Planner

Search our weather history database for the weather conditions in past years. The results will help you decide how hot, cold, wet, or windy it might be!

Date:

Astronomy

Jun. 10, 2014 Rise Set
Actual Time 5:20 AM CDT 8:30 PM CDT
Civil Twilight 4:46 AM CDT 9:05 PM CDT
Nautical Twilight 4:02 AM CDT 9:49 PM CDT
Astronomical Twilight 3:10 AM CDT 10:41 PM CDT
Moon 5:54 PM CDT (6/10) 3:29 AM CDT (6/10)
Length of Visible Light 16h 18m
Length of Day
15h 10m
Waxing Gibbous, 92% of the Moon is Illuminated
Jun 10
Waxing Gibbous
Jun 12
Full
Jun 19
Last Quarter
Jun 27
New
Jul 5
First Quarter

Hourly Weather History & Observations

Time (CDT) Temp. Dew Point Humidity Pressure Visibility Wind Dir Wind Speed Gust Speed Precip Events Conditions
12:15 AM 62.1 °F 48.2 °F 60% 29.94 in 10.0 mi ENE 11.5 mph - N/A   Clear
12:35 AM 61.3 °F 47.7 °F 61% 29.94 in 10.0 mi ENE 11.5 mph - N/A   Clear
12:55 AM 60.8 °F 46.8 °F 60% 29.93 in 10.0 mi ENE 11.5 mph - N/A   Clear
1:15 AM 60.3 °F 46.4 °F 60% 29.93 in 10.0 mi ENE 10.4 mph - N/A   Clear
1:35 AM 60.1 °F 46.2 °F 60% 29.93 in 10.0 mi ENE 9.2 mph - N/A   Clear
1:55 AM 60.1 °F 46.6 °F 61% 29.93 in 10.0 mi East 8.1 mph - N/A   Clear
2:15 AM 60.1 °F 46.6 °F 61% 29.93 in 10.0 mi ENE 9.2 mph - N/A   Clear
2:35 AM 60.1 °F 47.1 °F 62% 29.92 in 10.0 mi ENE 10.4 mph - N/A   Scattered Clouds
2:55 AM 60.3 °F 46.8 °F 61% 29.92 in 10.0 mi NE 8.1 mph - N/A   Clear
3:15 AM 60.3 °F 47.1 °F 62% 29.92 in 10.0 mi ENE 9.2 mph - N/A   Scattered Clouds
3:35 AM 60.8 °F 46.8 °F 60% 29.91 in 10.0 mi ENE 9.2 mph - N/A   Scattered Clouds
3:55 AM 61.0 °F 46.8 °F 59% 29.91 in 10.0 mi ENE 9.2 mph - N/A   Scattered Clouds
4:15 AM 60.8 °F 46.8 °F 60% 29.90 in 10.0 mi NE 10.4 mph - N/A   Clear
4:35 AM 60.4 °F 47.3 °F 62% 29.90 in 10.0 mi NE 9.2 mph - N/A   Clear
4:55 AM 60.4 °F 47.3 °F 62% 29.90 in 10.0 mi NE 9.2 mph - N/A   Clear
5:15 AM 60.8 °F 47.3 °F 61% 29.90 in 10.0 mi NE 8.1 mph - N/A   Clear
5:35 AM 60.8 °F 47.3 °F 61% 29.89 in 10.0 mi ENE 8.1 mph - N/A   Clear
5:55 AM 60.8 °F 47.5 °F 62% 29.89 in 10.0 mi ENE 8.1 mph - N/A   Clear
6:15 AM 61.0 °F 47.3 °F 61% 29.89 in 10.0 mi ENE 10.4 mph - N/A   Clear
6:35 AM 60.8 °F 48.0 °F 63% 29.89 in 10.0 mi ENE 8.1 mph - N/A   Clear
6:55 AM 60.8 °F 48.2 °F 63% 29.90 in 10.0 mi ENE 9.2 mph - N/A   Clear
7:15 AM 60.8 °F 49.1 °F 65% 29.90 in 10.0 mi ENE 8.1 mph - N/A Rain Light Rain
7:35 AM 59.5 °F 51.6 °F 75% 29.90 in 10.0 mi ENE 8.1 mph - N/A Rain Light Rain
7:55 AM 59.5 °F 52.5 °F 78% 29.90 in 10.0 mi ENE 6.9 mph - N/A Rain Rain
8:15 AM 59.4 °F 52.9 °F 79% 29.90 in 10.0 mi NE 8.1 mph - N/A Rain Light Rain
8:35 AM 59.4 °F 53.6 °F 81% 29.90 in 10.0 mi NE 8.1 mph - N/A   Drizzle
8:55 AM 59.9 °F 53.8 °F 80% 29.89 in 10.0 mi NE 11.5 mph - N/A   Light Drizzle
9:15 AM 60.4 °F 54.3 °F 80% 29.90 in 10.0 mi NE 9.2 mph - N/A Rain Light Rain
9:35 AM 60.8 °F 54.7 °F 80% 29.90 in 10.0 mi NE 8.1 mph - N/A   Mostly Cloudy
9:55 AM 61.2 °F 54.9 °F 80% 29.91 in 10.0 mi NE 5.8 mph - N/A   Mostly Cloudy
10:15 AM 61.3 °F 55.2 °F 80% 29.92 in 10.0 mi East 3.5 mph - N/A   Overcast
10:35 AM 62.1 °F 55.9 °F 80% 29.92 in 10.0 mi NE 6.9 mph - N/A Rain Light Rain
10:55 AM 62.2 °F 56.1 °F 80% 29.92 in 10.0 mi NE 8.1 mph - N/A   Scattered Clouds
11:15 AM 62.6 °F 56.5 °F 80% 29.91 in 10.0 mi NE 9.2 mph - 0.01 in Rain Light Rain
11:35 AM 63.0 °F 56.8 °F 80% 29.91 in 10.0 mi NE 9.2 mph - 0.01 in   Scattered Clouds
11:55 AM 64.6 °F 57.7 °F 78% 29.90 in 10.0 mi NE 10.4 mph - 0.01 in   Scattered Clouds
12:15 PM 65.3 °F 57.2 °F 75% 29.89 in 10.0 mi ENE 11.5 mph - N/A   Clear
12:35 PM 66.4 °F 57.4 °F 73% 29.89 in 10.0 mi ENE 12.7 mph - N/A   Clear
12:55 PM 67.5 °F 56.5 °F 68% 29.90 in 10.0 mi ENE 11.5 mph - N/A   Scattered Clouds
1:15 PM 67.5 °F 57.2 °F 70% 29.90 in 10.0 mi ENE 9.2 mph - N/A Rain Rain
1:35 PM 68.2 °F 55.2 °F 63% 29.90 in 10.0 mi ESE 15.0 mph 18.4 mph N/A   Mostly Cloudy
2:15 PM 66.6 °F 57.9 °F 74% 29.89 in 10.0 mi NE 8.1 mph - N/A   Overcast
2:55 PM 67.5 °F 59.0 °F 74% 29.87 in 10.0 mi NE 9.2 mph - N/A   Mostly Cloudy
3:35 PM 68.0 °F 56.8 °F 67% 29.87 in 10.0 mi ENE 10.4 mph - N/A   Overcast
3:55 PM 68.4 °F 56.8 °F 67% 29.86 in 10.0 mi ENE 10.4 mph - N/A   Overcast
4:15 PM 68.4 °F 56.7 °F 66% 29.86 in 10.0 mi ENE 12.7 mph - N/A   Overcast
4:55 PM 65.7 °F 58.6 °F 78% 29.85 in 7.0 mi ENE 12.7 mph - N/A Rain Rain
5:15 PM 64.8 °F 59.2 °F 82% 29.85 in 4.0 mi ENE 10.4 mph - N/A   Drizzle
5:35 PM 63.7 °F 59.7 °F 87% 29.84 in 4.0 mi NE 10.4 mph - 0.01 in Rain Rain
5:55 PM 63.5 °F 59.4 °F 86% 29.84 in 7.0 mi NE 12.7 mph - 0.01 in   Overcast
6:15 PM 63.0 °F 59.4 °F 88% 29.84 in 5.0 mi NE 13.8 mph 17.3 mph N/A   Overcast
6:35 PM 61.9 °F 59.0 °F 90% 29.84 in 3.0 mi NNE 15.0 mph - N/A   Drizzle
6:55 PM 61.3 °F 58.6 °F 91% 29.83 in 3.0 mi NE 13.8 mph 21.9 mph N/A   Light Drizzle
7:15 PM 60.8 °F 58.1 °F 91% 29.83 in 3.0 mi NE 19.6 mph 25.3 mph 0.01 in Rain Rain
7:35 PM 60.3 °F 58.1 °F 93% 29.83 in 5.0 mi NE 13.8 mph - 0.02 in Rain Light Rain
7:55 PM 59.9 °F 57.6 °F 92% 29.82 in 7.0 mi NE 16.1 mph 20.7 mph 0.02 in   Light Drizzle
8:15 PM 59.9 °F 57.6 °F 92% 29.82 in 5.0 mi NNE 13.8 mph - N/A Rain Rain
8:35 PM 59.9 °F 57.6 °F 92% 29.81 in 5.0 mi NE 16.1 mph - N/A   Mostly Cloudy
8:55 PM 59.9 °F 57.6 °F 92% 29.81 in 5.0 mi NE 17.3 mph 20.7 mph N/A   Mostly Cloudy
9:15 PM 59.9 °F 57.6 °F 92% 29.81 in 5.0 mi NE 16.1 mph - N/A   Overcast
9:35 PM 59.9 °F 57.4 °F 91% 29.81 in 5.0 mi NE 13.8 mph - N/A   Overcast
9:55 PM 59.9 °F 57.4 °F 91% 29.81 in 5.0 mi NE 15.0 mph - N/A   Overcast
10:15 PM 59.9 °F 57.4 °F 91% 29.81 in 5.0 mi NE 15.0 mph - N/A   Light Drizzle
10:35 PM 59.7 °F 57.4 °F 92% 29.80 in 7.0 mi NE 13.8 mph 18.4 mph N/A   Overcast
10:55 PM 59.5 °F 57.2 °F 92% 29.79 in 7.0 mi NE 13.8 mph - N/A   Mostly Cloudy
11:15 PM 59.2 °F 57.2 °F 93% 29.78 in 4.0 mi NE 17.3 mph - 0.04 in Rain Rain
11:35 PM 59.4 °F 57.4 °F 93% 29.77 in 5.0 mi NNE 16.1 mph - 0.05 in   Overcast
11:55 PM 59.4 °F 57.4 °F 93% 29.77 in 5.0 mi NE 16.1 mph 21.9 mph 0.05 in   Overcast